INTELSAT 9 (IS-9)

Last updated on Fri Apr 25 2025 00:02:38 GMT+0000 (Coordinated Universal Time)

1 26451U 00043A 25113.90148846 -.00000006 00000+0 00000+0 0 9992 2 26451 9.4648 52.9785 0003934 357.1320 192.8576 1.00272133 90643
UTC large
Height (km)
Speed (km/s)
/
Latitude / Longitude
Inclination (degrees)
Orbital Period (minutes)
Azimuth
Elevation
Range (km)
Doppler Factor

Next 0 passes for location: London (51.5072 / 0.1276)

Sorry there are no passes over London.